Wetbulb
59.05 59.90 59.91 60.91 58.76 56.30 57.00 57.47 57.61 57.54 57.87 58.64 58.96 59.09 59.05 58.18 57.40 58.00 59.24 60.33 59.22 57.93 58.17 57.98 56.61 54.60 51.48 47.30 45.61 52.87 56.31 55.32 53.25 52.56 50.63 50.58 49.06 48.94 46.60 46.87 47.25 46.77 46.33 46.54 45.57 44.52 44.45
59.63 59.90 59.62 59.83 58.87 59.41 59.04 58.86 58.53 58.53 58.66 58.45 58.71 59.56 59.07 58.75 58.29 59.66 59.74 59.77 58.88 56.81 57.01 57.06 54.36 53.51 50.30 42.02 51.68 53.97 53.11 52.89 52.20 51.66 49.88 50.16 49.34 49.79 46.78 44.90 45.33 45.76 45.36 43.92 43.64 43.68 43.95
59.45 59.75 59.89 59.53 59.07 59.04 58.86 59.16 58.78 59.59 59.18 58.75 58.49 59.56 60.15 59.62 60.05 60.00 60.32 59.19 57.35 56.77 56.79 54.40 53.50 53.26 48.43 44.55 52.87 54.36 53.25 52.08 52.74 51.56 48.37 48.65 48.57 47.74 46.62 43.21 44.50 43.64 41.92 43.05 43.75 44.06 43.86
58.94 59.20 59.86 59.88 59.41 58.91 58.86 58.37 58.58 58.57 59.07 59.44 59.51 59.46 59.40 59.35 59.35 59.25 59.19 57.81 56.97 57.50 56.78 53.90 52.80 52.71 44.72 51.77 54.91 53.17 53.63 52.23 53.34 52.96 51.47 51.38 51.84 47.78 46.03 45.75 44.46 43.35 43.08 41.74 43.36 44.04 44.56
58.64 58.68 58.77 59.12 59.07 59.07 58.83 58.64 58.51 58.66 58.59 58.19 57.99 58.07 58.00 57.63 57.35 57.11 57.10 56.73 55.85 56.21 54.46 54.43 51.98 51.05 43.83 54.21 50.11 53.17 53.54 49.71 50.94 51.15 50.10 50.34 50.02 46.62 46.27 43.89 42.25 42.66 40.25 41.05 41.71 44.40 44.13
57.98 57.97 57.93 58.12 58.30 58.26 58.09 57.77 58.33 58.10 57.69 57.27 57.17 57.13 56.77 56.36 55.68 55.66 56.05 55.20 54.73 54.36 54.10 52.24 52.04 48.20 48.17 45.62 50.26 51.87 53.84 52.03 48.79 48.80 48.82 48.17 48.50 45.81 45.69 43.33 39.66 40.15 39.87 41.30 40.84 44.05 43.48
57.42 57.46 57.23 57.30 57.39 57.45 57.67 57.34 57.14 57.02 56.86 56.76 56.66 56.36 55.71 55.22 54.47 54.17 54.58 53.89 50.38 49.44 50.50 46.01 45.88 45.71 47.10 50.44 52.88 51.25 52.22 50.31 49.00 47.71 43.90 45.54 45.33 42.51 41.29 42.61 42.19 41.26 40.39 40.13 43.00 43.74 41.12
56.76 56.90 56.78 56.83 56.87 56.93 56.96 56.89 56.69 56.42 56.19 56.23 56.15 55.71 55.41 54.47 53.85 53.70 55.34 50.25 47.87 50.77 43.68 49.15 49.07 48.63 49.97 50.34 46.62 49.81 53.24 46.39 45.85 42.40 44.75 45.17 41.45 42.33 43.06 42.81 41.59 40.87 39.84 40.97 42.85 42.82 41.91
56.22 56.34 56.36 56.38 56.44 56.56 56.56 56.52 56.43 56.20 55.93 55.59 55.82 55.40 54.91 54.07 53.05 54.76 51.66 48.88 52.33 51.13 45.16 43.91 47.30 47.52 47.67 50.84 46.38 47.05 49.79 47.11 44.89 43.11 43.40 43.29 41.51 42.42 41.93 41.43 40.46 40.79 39.02 38.90 37.19 41.54 44.18
55.94 55.79 55.83 55.83 55.83 55.87 55.95 55.94 55.93 55.73 55.32 54.92 55.38 54.93 54.38 53.86 52.70 52.24 49.18 51.45 52.48 51.19 43.90 39.97 44.11 46.63 49.13 48.42 44.91 50.61 50.66 47.16 44.95 41.57 43.09 41.70 41.89 41.07 41.21 40.04 40.98 38.05 40.59 39.75 39.09 38.10 35.98
55.54 55.59 55.42 55.36 55.32 55.31 55.32 55.55 55.55 55.37 54.79 54.06 54.48 54.24 53.23 55.20 52.08 50.18 50.20 52.75 52.17 49.50 34.42 40.78 43.65 50.64 48.95 46.51 46.28 47.23 50.80 48.59 42.91 42.04 43.15 39.54 39.91 39.86 39.77 39.69 41.52 39.37 41.40 39.65 39.00 37.23 36.91
55.10 54.66 54.49 54.41 54.40 54.30 54.30 54.55 54.80 55.04 54.52 53.39 53.77 53.54 52.91 53.21 53.39 50.85 52.93 52.46 49.61 42.36 33.41 36.79 43.24 43.06 44.11 45.83 45.45 47.48 46.60 49.29 47.58 43.49 43.97 41.08 43.59 42.73 41.42 41.91 41.72 42.38 40.16 40.00 38.31 37.77 34.86
55.66 55.56 55.46 55.37 55.29 55.22 55.11 54.70 54.36 54.54 54.43 52.69 52.43 52.45 52.31 52.45 49.98 52.71 52.52 51.01 39.58 37.39 37.41 37.44 39.62 42.52 42.35 41.50 42.70 44.08 42.37 42.10 41.12 35.67 34.54 39.89 41.02 42.78 42.89 40.34 42.23 41.53 35.66 36.67 36.58 36.20 35.67
55.88 55.64 55.32 55.14 54.98 54.91 55.11 55.07 54.33 54.33 54.36 52.84 51.64 52.56 51.09 50.90 53.07 52.95 51.26 44.96 33.81 35.15 36.15 40.46 40.98 41.08 39.58 41.02 41.18 42.00 40.96 40.22 41.36 40.28 39.16 37.22 36.75 40.18 42.66 40.53 38.81 38.51 36.67 33.83 27.49 31.16 33.63
56.33 56.11 55.82 55.52 55.31 55.20 55.08 54.89 54.42 54.62 54.39 53.10 50.11 54.06 53.49 52.10 52.93 52.25 48.01 41.58 36.76 37.44 39.90 39.78 40.15 38.56 38.50 40.13 40.51 40.53 40.58 39.99 40.42 40.60 36.21 35.92 34.83 40.86 41.86 42.83 41.66 38.61 36.89 38.58 32.97 34.19 30.63
56.32 56.09 55.96 55.76 55.69 55.50 55.37 55.10 54.62 54.46 52.76 51.97 52.79 52.29 51.34 51.25 52.81 50.78 46.36 37.47 37.73 40.45 41.60 41.62 37.37 39.15 37.17 38.39 38.66 38.71 38.43 41.32 39.95 41.58 42.51 38.21 33.35 37.82 40.55 42.62 42.16 39.81 40.82 34.43 35.22 28.89 28.71
56.25 56.13 56.07 55.64 55.44 55.50 55.44 55.30 54.70 53.73 51.59 50.77 52.73 48.66 50.84 51.21 51.01 48.28 42.03 38.84 40.06 42.35 42.95 40.54 38.69 38.14 38.71 38.01 38.40 37.55 37.76 40.54 42.15 40.95 42.33 39.80 36.09 35.64 38.54 37.65 38.38 37.29 36.58 36.29 35.62 34.20 31.38
55.89 56.07 55.97 55.62 55.37 55.26 55.22 55.10 54.65 53.25 51.88 49.34 50.41 45.82 50.79 51.32 46.86 45.53 41.34 41.04 41.78 41.64 43.53 42.12 41.96 40.39 39.15 38.75 37.47 37.04 37.04 39.43 43.64 42.92 38.26 40.48 37.68 33.69 36.15 39.84 40.65 40.47 38.89 38.80 33.22 32.64 33.67
55.86 55.72 55.62 55.35 55.01 54.74 54.76 54.67 54.33 52.82 51.22 51.12 47.38 46.43 50.63 49.74 43.16 41.44 41.09 40.43 41.59 40.79 40.66 40.51 39.59 40.90 40.87 38.32 35.08 37.23 38.04 41.83 43.16 41.93 39.40 40.58 36.14 31.77 33.07 35.33 37.52 35.73 38.68 38.92 38.35 35.79 31.42
55.12 55.42 55.39 55.18 54.78 54.44 54.29 54.21 54.01 53.04 50.88 50.42 48.03 45.78 48.13 47.70 45.22 42.86 40.24 39.48 38.55 42.29 41.16 41.51 40.26 41.38 39.33 37.57 39.10 36.61 36.90 40.21 42.33 42.38 41.27 41.92 37.10 33.90 32.43 33.10 35.20 33.90 35.98 37.80 36.59 32.55 33.03
55.17 55.32 55.45 55.10 54.78 54.40 53.93 53.89 53.75 52.81 50.86 50.97 47.42 42.08 40.94 41.19 41.82 41.29 41.25 39.85 37.83 37.66 41.53 42.25 39.48 39.75 38.38 35.36 35.78 35.48 37.81 38.61 40.71 41.87 41.70 40.40 33.81 35.68 35.82 36.29 36.23 35.04 34.47 35.34 33.17 34.98 31.81
55.86 55.52 55.03 54.88 54.63 54.26 53.67 53.58 53.43 52.42 51.50 50.95 47.40 45.73 43.27 43.00 40.75 40.56 38.34 38.83 37.81 38.31 39.64 38.06 38.09 38.86 39.85 36.82 37.26 35.25 37.18 37.73 37.72 40.42 39.77 40.76 33.75 34.71 31.19 36.46 35.95 32.56 35.19 35.83 35.50 35.53 35.69
56.07 55.67 55.15 54.83 54.37 54.00 53.42 53.14 53.43 52.12 52.10 50.03 47.85 47.15 45.49 39.26 41.57 41.11 39.92 38.43 38.32 39.69 40.84 41.20 40.69 39.51 38.25 40.28 42.51 42.95 43.07 42.33 41.22 39.14 38.44 37.79 35.50 33.40 30.43 33.89 34.21 31.49 35.86 36.12 36.05 36.99 36.40
56.09 56.05 55.66 55.22 54.27 53.66 53.12 53.02 53.47 52.50 50.66 51.24 48.28 47.79 45.99 42.93 42.47 41.85 39.55 38.94 38.86 40.03 38.99 40.76 41.51 40.01 41.80 44.50 44.36 43.17 41.58 40.91 40.63 39.62 40.89 37.27 35.63 34.43 30.61 33.15 26.56 35.62 38.21 36.70 36.92 37.33 38.50
55.68 56.07 56.19 55.40 54.54 53.53 52.78 52.49 53.02 52.94 51.26 50.87 49.70 48.01 46.24 42.81 42.89 42.61 41.33 40.90 41.75 42.19 39.80 40.42 42.32 43.51 44.53 42.18 39.41 38.24 35.75 33.37 34.33 35.89 37.81 38.79 36.97 32.42 28.91 29.96 34.86 36.10 34.18 34.83 34.68 34.79 38.46
55.56 55.89 56.09 55.69 54.46 53.25 52.31 51.73 51.61 52.67 51.83 52.43 50.60 49.58 47.60 43.62 43.00 43.25 41.51 41.79 41.15 42.45 41.70 40.04 42.22 44.73 43.20 40.92 38.13 34.42 34.20 35.83 32.74 30.96 35.41 36.44 37.47 33.97 31.22 25.88 27.47 33.24 36.58 39.13 38.09 31.86 38.50
55.45 55.42 55.59 55.76 54.61 53.39 52.33 51.69 50.80 51.05 52.10 51.61 51.06 50.16 47.98 43.87 46.68 43.91 42.39 42.73 43.49 41.48 41.04 41.21 40.51 40.44 42.32 38.90 35.66 35.08 34.95 35.74 32.95 31.84 29.35 30.73 31.89 29.53 30.48 28.72 33.12 39.63 39.20 39.26 30.18 32.29 39.92
54.93 54.92 54.98 55.27 54.62 53.62 52.74 51.30 50.85 51.11 51.63 51.35 50.24 50.97 48.05 45.18 45.97 44.97 44.64 43.03 42.49 42.26 40.21 42.17 41.04 39.90 39.04 35.99 36.66 37.53 35.32 36.62 33.19 36.68 33.01 32.37 30.80 29.50 31.64 29.43 26.44 41.94 37.84 34.53 39.28 41.93 41.92
54.52 54.55 54.55 54.57 54.19 53.56 52.15 50.74 51.20 51.76 51.75 51.58 47.28 49.54 48.99 44.62 44.71 47.59 47.37 47.89 46.59 46.18 43.40 44.19 42.45 41.07 42.79 39.25 39.06 38.97 35.10 35.60 34.85 31.59 37.06 31.17 36.55 35.62 35.12 35.08 40.81 41.55 41.07 43.50 43.19 42.09 42.26
MSLP
1016.38 1015.47 1014.59 1012.98 1013.36 1013.85 1013.49 1013.30 1013.13 1012.91 1013.05 1013.31 1013.35 1013.44 1013.69 1014.11 1014.57 1015.31 1015.20 1015.20 1015.29 1015.30 1015.58 1015.55 1015.53 1015.35 1015.15 1014.94 1016.15 1016.39 1016.21 1015.63 1015.25 1014.94 1014.58 1013.95 1013.29 1012.88 1012.72 1013.24 1013.48 1013.42 1014.42 1014.94 1015.56 1015.79 1015.74
1017.19 1016.38 1015.74 1015.18 1014.83 1014.31 1014.29 1014.05 1013.79 1013.60 1013.80 1014.22 1013.80 1013.53 1014.24 1014.74 1015.34 1015.55 1015.50 1015.54 1015.43 1015.53 1015.83 1015.83 1015.65 1015.27 1014.61 1015.60 1017.04 1016.49 1016.16 1015.74 1015.46 1015.05 1014.93 1014.54 1013.94 1013.61 1013.72 1014.18 1014.13 1014.56 1014.81 1015.23 1015.75 1015.89 1015.91
1018.05 1017.46 1016.67 1016.23 1015.77 1015.35 1015.15 1015.11 1014.65 1014.22 1014.29 1014.45 1014.66 1015.03 1015.07 1015.21 1015.48 1015.74 1015.78 1015.71 1015.56 1015.90 1016.07 1015.94 1015.53 1015.00 1015.02 1017.17 1016.94 1016.59 1016.18 1016.02 1015.83 1015.58 1015.30 1015.67 1015.18 1014.60 1014.55 1014.89 1015.40 1015.00 1015.00 1015.24 1015.55 1015.94 1015.93
1018.93 1018.34 1017.79 1017.22 1016.76 1016.36 1016.03 1015.82 1015.45 1015.25 1015.33 1015.31 1015.65 1015.77 1015.93 1015.96 1016.14 1016.06 1015.99 1015.87 1015.88 1016.14 1016.25 1016.14 1015.75 1014.74 1016.26 1017.41 1017.00 1016.57 1016.05 1015.91 1016.13 1016.16 1016.07 1016.13 1015.53 1015.43 1015.57 1015.85 1015.54 1014.90 1014.94 1014.36 1015.27 1015.96 1016.14
1019.67 1019.15 1018.73 1018.24 1017.77 1017.35 1016.83 1016.59 1016.52 1016.51 1016.30 1016.14 1016.04 1016.18 1016.19 1016.16 1016.32 1016.36 1016.38 1016.21 1016.26 1016.41 1016.36 1016.20 1015.67 1014.66 1016.65 1017.22 1017.08 1016.91 1016.83 1016.38 1016.26 1016.30 1016.46 1016.07 1015.77 1015.89 1016.11 1015.59 1015.01 1014.60 1013.79 1014.04 1014.79 1015.88 1016.00
1020.32 1019.88 1019.46 1019.13 1018.72 1018.34 1018.16 1017.62 1017.23 1016.94 1017.16 1016.92 1016.78 1016.60 1016.78 1016.85 1016.81 1016.82 1016.76 1016.46 1016.50 1016.50 1015.96 1015.76 1015.45 1015.47 1017.21 1017.64 1017.42 1017.48 1017.08 1016.68 1016.26 1016.26 1016.12 1015.93 1015.81 1015.85 1015.96 1015.60 1014.80 1014.44 1014.36 1014.33 1014.68 1015.34 1015.73
1020.90 1020.57 1020.19 1019.78 1019.45 1019.25 1018.83 1018.59 1018.39 1018.10 1017.83 1017.79 1017.51 1017.32 1017.24 1016.97 1017.03 1016.96 1016.49 1016.35 1016.67 1016.36 1016.62 1016.87 1016.99 1016.82 1017.36 1017.63 1017.33 1017.41 1017.34 1016.63 1016.14 1015.93 1015.57 1016.17 1016.39 1016.52 1016.95 1016.70 1016.38 1015.95 1015.39 1014.87 1014.71 1015.81 1015.75
1021.49 1021.10 1020.81 1020.45 1020.01 1019.76 1019.60 1019.21 1018.92 1018.70 1018.26 1017.89 1017.70 1017.46 1017.20 1017.17 1017.04 1016.83 1016.36 1016.63 1017.70 1017.82 1017.77 1017.60 1017.26 1017.38 1017.79 1017.82 1017.21 1017.35 1016.73 1016.39 1016.06 1016.10 1016.35 1016.51 1017.00 1017.96 1018.06 1017.65 1017.11 1016.74 1016.13 1015.45 1015.57 1016.16 1015.93
1022.03 1021.73 1021.37 1021.03 1020.68 1020.21 1019.87 1019.72 1019.34 1018.94 1018.79 1018.49 1018.08 1017.65 1017.37 1017.27 1017.16 1016.88 1017.12 1018.13 1018.47 1018.14 1017.11 1017.96 1018.04 1017.89 1018.18 1017.85 1017.83 1017.82 1017.40 1017.23 1016.71 1016.77 1016.71 1016.96 1018.45 1018.93 1018.74 1018.21 1017.53 1017.04 1017.07 1017.17 1017.67 1016.59 1015.16
1022.58 1022.18 1021.97 1021.64 1021.19 1020.95 1020.41 1020.06 1019.72 1019.31 1018.82 1018.49 1018.10 1017.74 1017.19 1016.99 1017.31 1017.59 1017.99 1018.77 1018.65 1018.33 1017.61 1018.47 1018.07 1018.46 1018.28 1018.14 1018.14 1018.38 1018.22 1018.05 1017.55 1017.66 1017.93 1018.51 1019.43 1019.32 1019.11 1018.64 1018.46 1017.86 1018.54 1018.51 1018.17 1017.47 1016.03
1023.13 1022.58 1022.31 1022.08 1021.71 1021.21 1020.82 1020.26 1019.90 1019.58 1019.19 1018.72 1018.21 1017.79 1017.49 1016.75 1017.31 1017.86 1018.89 1018.70 1018.44 1018.03 1018.19 1019.02 1018.48 1018.57 1018.32 1017.96 1018.35 1018.20 1018.62 1017.79 1017.91 1018.19 1018.61 1019.18 1019.48 1019.51 1019.11 1019.27 1019.09 1018.82 1019.23 1019.06 1018.77 1018.19 1017.27
1023.54 1023.12 1022.60 1022.23 1021.96 1021.58 1021.19 1020.78 1020.16 1019.61 1019.47 1019.10 1018.62 1018.08 1017.76 1017.49 1017.73 1018.89 1018.78 1018.55 1018.26 1018.05 1018.79 1019.12 1018.70 1018.30 1017.92 1017.95 1018.19 1018.25 1018.27 1018.44 1018.73 1018.45 1018.51 1019.39 1020.03 1019.86 1019.70 1019.76 1019.73 1019.69 1019.31 1018.84 1018.90 1018.30 1017.21
1023.84 1023.50 1023.10 1022.60 1022.08 1021.73 1021.33 1020.96 1020.57 1020.10 1019.50 1019.14 1018.93 1018.60 1018.05 1018.18 1018.67 1018.96 1018.73 1018.03 1018.06 1018.18 1019.55 1019.02 1018.60 1018.24 1017.98 1018.03 1018.03 1018.06 1018.06 1018.06 1018.22 1018.68 1019.04 1019.25 1019.60 1020.07 1020.24 1019.81 1019.94 1019.78 1019.73 1018.99 1018.54 1017.83 1016.51
1024.11 1023.74 1023.38 1022.94 1022.45 1021.91 1021.42 1020.96 1020.64 1020.26 1019.92 1019.50 1019.06 1018.67 1019.12 1019.11 1019.09 1018.91 1018.40 1017.63 1018.04 1018.68 1018.74 1019.01 1018.69 1018.37 1017.89 1018.26 1018.18 1018.04 1017.90 1017.91 1018.64 1018.53 1018.59 1018.89 1019.68 1019.98 1020.38 1020.15 1020.01 1019.96 1019.90 1019.45 1018.49 1016.98 1015.72
1024.36 1023.98 1023.51 1023.21 1022.82 1022.27 1021.73 1021.10 1020.53 1020.07 1019.74 1019.49 1019.29 1018.77 1018.64 1019.19 1019.21 1018.89 1017.97 1017.91 1018.55 1018.67 1018.78 1018.64 1018.60 1017.96 1017.97 1018.18 1018.12 1017.86 1017.83 1017.98 1018.74 1018.96 1018.82 1018.78 1019.51 1020.31 1020.45 1020.51 1020.66 1020.07 1019.73 1019.83 1018.84 1017.37 1016.26
1024.71 1024.47 1024.09 1023.54 1023.05 1022.59 1021.94 1021.31 1020.69 1020.13 1019.65 1019.35 1018.78 1018.55 1019.00 1019.46 1019.20 1018.57 1017.81 1018.62 1019.22 1019.58 1019.34 1018.90 1017.99 1018.03 1017.40 1017.78 1017.83 1017.67 1017.83 1018.64 1019.02 1019.45 1019.46 1019.40 1019.59 1020.11 1020.55 1020.71 1020.77 1020.27 1020.23 1019.72 1018.96 1017.20 1014.90
1025.03 1024.70 1024.35 1024.04 1023.61 1023.03 1022.43 1021.65 1020.94 1020.29 1019.83 1019.49 1018.92 1018.37 1019.36 1019.45 1019.21 1018.05 1018.23 1019.12 1019.64 1020.03 1019.87 1019.20 1018.43 1018.00 1017.80 1017.73 1017.89 1017.82 1018.14 1019.00 1019.21 1019.66 1019.74 1019.68 1019.81 1020.10 1020.30 1019.84 1019.37 1020.28 1019.71 1019.47 1018.78 1017.25 1015.35
1025.13 1024.87 1024.54 1024.11 1023.73 1023.29 1022.78 1022.08 1021.20 1020.45 1019.83 1019.58 1019.01 1018.57 1019.42 1019.54 1018.67 1018.26 1018.63 1019.45 1020.09 1020.10 1020.00 1019.59 1019.16 1018.74 1018.31 1018.37 1018.20 1018.30 1018.46 1018.97 1019.59 1019.82 1019.73 1020.02 1019.76 1019.30 1019.01 1019.62 1019.92 1019.54 1018.89 1018.43 1017.97 1016.96 1016.16
1025.21 1024.96 1024.74 1024.45 1023.88 1023.30 1022.68 1022.05 1021.53 1020.76 1020.16 1019.51 1018.78 1018.94 1019.31 1019.16 1018.46 1018.47 1019.50 1019.80 1020.06 1020.11 1020.00 1019.79 1019.49 1019.41 1019.21 1018.90 1018.94 1019.04 1019.30 1020.00 1020.18 1020.30 1020.29 1020.35 1019.78 1019.15 1018.79 1019.71 1019.84 1019.46 1018.70 1018.59 1018.18 1018.06 1016.32
1025.33 1025.09 1024.83 1024.56 1024.31 1023.81 1023.12 1022.36 1021.60 1021.00 1020.47 1019.95 1019.01 1018.91 1018.79 1018.70 1019.31 1018.78 1019.10 1019.60 1020.05 1020.47 1020.28 1020.17 1019.92 1019.78 1019.53 1019.34 1019.55 1019.41 1019.55 1020.19 1020.57 1020.70 1021.09 1020.90 1019.94 1019.24 1018.52 1018.51 1018.88 1018.69 1018.42 1018.49 1018.29 1017.58 1015.78
1025.51 1025.25 1025.02 1024.74 1024.35 1023.96 1023.46 1022.76 1021.92 1021.19 1020.76 1020.31 1019.79 1020.39 1020.84 1019.52 1019.30 1019.42 1019.41 1019.70 1019.93 1020.28 1020.51 1020.44 1020.14 1019.82 1019.53 1019.36 1019.42 1019.43 1019.73 1020.14 1020.74 1021.16 1021.19 1020.98 1020.09 1019.36 1019.12 1018.72 1018.40 1017.98 1017.78 1017.71 1017.62 1017.06 1016.20
1025.63 1025.46 1025.13 1024.88 1024.61 1024.22 1023.84 1023.25 1022.40 1021.42 1020.82 1020.59 1020.53 1020.75 1020.98 1020.39 1020.29 1019.81 1019.89 1019.83 1019.91 1020.20 1020.25 1020.24 1020.18 1019.91 1019.87 1019.57 1019.32 1019.32 1019.62 1019.89 1019.83 1021.02 1021.07 1021.06 1020.37 1019.97 1019.00 1017.82 1017.64 1017.14 1016.66 1016.59 1016.69 1016.35 1015.78
1025.46 1025.43 1025.31 1025.02 1024.81 1024.55 1024.21 1023.85 1023.26 1022.22 1021.05 1021.20 1021.98 1021.82 1021.19 1020.64 1020.15 1019.87 1019.90 1020.06 1020.18 1020.38 1020.39 1020.40 1020.29 1020.23 1020.21 1020.00 1019.87 1019.74 1019.80 1019.81 1019.94 1020.23 1020.68 1020.95 1020.64 1020.07 1018.41 1017.94 1017.40 1015.96 1014.51 1014.83 1015.29 1015.38 1015.29
1025.30 1025.29 1025.29 1025.02 1024.87 1024.75 1024.40 1024.18 1023.97 1023.33 1022.80 1022.23 1022.64 1022.04 1020.91 1020.24 1020.40 1020.20 1020.42 1020.56 1020.40 1020.50 1020.53 1020.54 1020.73 1020.61 1020.77 1020.63 1020.34 1020.17 1020.14 1020.02 1020.13 1020.35 1020.52 1020.45 1020.78 1020.53 1018.90 1017.95 1016.46 1014.94 1014.91 1015.05 1014.99 1015.27 1015.28
1025.02 1024.93 1025.06 1025.00 1024.81 1024.67 1024.60 1024.34 1024.32 1024.04 1023.58 1022.98 1023.12 1022.69 1021.47 1020.55 1020.74 1020.63 1020.71 1020.70 1020.65 1020.63 1020.86 1020.77 1020.73 1020.97 1021.10 1020.73 1020.02 1019.24 1019.45 1019.98 1020.21 1020.79 1020.78 1020.99 1020.73 1020.29 1019.37 1017.82 1015.61 1014.51 1015.41 1015.44 1015.22 1015.30 1015.45
1024.75 1024.51 1024.60 1024.68 1024.71 1024.69 1024.62 1024.48 1024.40 1024.30 1024.05 1023.36 1023.66 1023.68 1022.60 1021.41 1020.48 1020.84 1020.88 1020.92 1020.65 1020.31 1020.54 1020.91 1021.40 1021.48 1021.31 1020.69 1020.17 1019.23 1018.34 1018.43 1019.41 1020.67 1021.30 1021.10 1020.93 1020.39 1019.43 1018.50 1016.04 1014.94 1015.34 1015.54 1015.61 1015.10 1015.66
1024.33 1024.13 1024.07 1024.13 1024.32 1024.45 1024.54 1024.52 1024.42 1024.31 1024.25 1023.86 1023.78 1023.95 1023.26 1022.22 1021.09 1021.38 1020.88 1020.54 1020.75 1020.75 1020.55 1020.90 1021.25 1021.61 1021.59 1020.51 1019.79 1018.86 1018.16 1018.43 1018.51 1018.89 1020.10 1020.56 1020.51 1019.60 1018.93 1017.90 1015.91 1014.45 1015.02 1015.65 1015.70 1015.58 1015.41
1023.41 1023.60 1023.60 1023.59 1023.75 1024.00 1024.37 1024.55 1024.49 1024.37 1024.19 1024.09 1023.99 1024.12 1023.77 1022.78 1021.69 1021.72 1021.53 1021.18 1021.16 1020.94 1020.40 1020.79 1021.08 1021.14 1021.17 1020.51 1019.46 1018.47 1018.29 1018.06 1018.17 1017.57 1018.12 1018.30 1018.53 1018.41 1018.06 1017.20 1015.47 1014.11 1015.19 1015.19 1014.74 1014.67 1015.11
1022.37 1022.79 1022.99 1023.13 1023.33 1023.59 1023.98 1024.36 1024.46 1024.53 1024.44 1024.33 1024.03 1024.29 1024.36 1023.88 1022.40 1022.00 1021.79 1021.64 1021.39 1021.29 1021.52 1020.92 1020.71 1020.81 1020.34 1020.00 1019.53 1018.90 1018.44 1018.24 1017.77 1017.18 1017.50 1017.38 1016.44 1016.28 1016.22 1014.88 1014.54 1014.51 1014.33 1014.32 1014.68 1014.60 1014.85
Wind_Speed
27 27 30 26 25 16 16 13 9 8 11 14 14 13 19 21 16 13 14 14 12 10 6 4 2 2 4 7 7 10 14 10 3 2 2 2 5 3 5 5 3 2 4 2 2 2 5
27 27 28 29 24 21 18 17 15 14 13 13 11 16 20 15 17 11 11 11 9 7 1 2 1 6 5 9 6 10 10 8 8 2 3 4 3 4 7 3 3 2 3 2 1 3 4
26 26 27 26 24 25 24 23 23 20 13 10 9 17 17 15 10 9 8 7 6 3 1 2 3 8 19 7 5 8 7 7 10 4 5 4 3 2 2 5 2 3 3 3 2 2 3
26 26 25 25 24 23 23 22 22 23 23 19 17 13 14 13 10 8 7 7 9 6 3 1 4 2 7 2 6 9 6 8 9 7 8 4 7 8 4 5 3 3 4 5 6 2 3
23 24 25 23 22 22 24 21 21 20 19 16 16 15 12 11 8 7 5 8 8 3 2 6 5 2 6 1 3 9 8 5 3 5 4 3 3 4 3 3 4 5 7 4 3 2 4
22 22 22 23 23 22 21 19 21 20 19 17 14 12 10 9 5 5 5 5 1 3 6 3 4 6 4 3 4 7 4 5 3 2 3 1 2 3 1 2 2 2 6 4 6 3 7
21 21 21 21 21 21 20 19 17 16 15 13 11 8 9 6 4 3 2 2 5 3 15 9 5 11 6 3 3 6 3 3 1 1 1 4 6 5 5 6 4 4 6 9 8 5 11
20 20 20 20 20 19 18 17 16 15 14 13 11 10 9 7 6 3 1 2 3 4 11 10 9 9 5 2 1 11 9 1 1 4 1 2 5 5 3 3 2 3 7 7 6 2 9
18 19 19 19 19 19 19 18 16 15 13 12 10 9 8 2 4 6 9 6 4 5 2 6 5 5 4 6 5 9 8 2 6 5 4 1 6 2 2 1 4 1 7 7 5 15 5
18 18 18 18 18 18 17 17 17 16 15 13 12 10 12 7 2 1 4 4 4 3 3 7 5 5 2 2 4 5 5 4 2 4 5 6 3 1 1 0 6 5 4 5 10 10 6
16 17 17 18 18 18 18 18 18 17 14 13 12 10 11 10 4 3 3 4 4 4 5 4 3 3 3 3 2 6 2 1 3 5 3 3 4 2 2 2 4 5 5 7 6 8 6
17 17 17 17 17 18 18 18 19 19 15 12 11 10 3 2 4 3 4 3 4 2 2 2 2 1 2 4 3 1 1 3 1 2 6 4 1 2 4 1 3 5 6 7 3 3 3
16 17 17 18 18 18 18 18 18 17 16 13 9 12 7 2 3 4 3 4 4 2 1 2 2 1 2 3 3 3 2 4 2 3 3 3 2 2 2 3 2 4 5 2 2 2 2
15 15 17 18 18 19 18 18 18 17 13 9 7 5 5 5 3 4 3 0 5 2 1 2 1 2 1 3 3 2 1 3 4 2 0 1 2 1 2 3 3 3 2 1 4 4 6
16 17 17 17 18 18 19 19 20 17 13 7 5 1 2 5 5 3 4 2 2 2 3 5 4 3 3 2 2 2 1 2 4 5 3 3 2 2 1 1 3 3 2 3 4 2 4
12 13 15 17 19 19 20 21 20 17 14 8 1 1 3 7 4 3 2 3 1 1 1 1 1 3 2 3 3 2 1 2 3 2 4 2 3 1 3 3 2 4 2 3 3 4 5
12 13 13 15 16 17 18 20 20 18 13 6 2 2 3 4 3 2 3 4 3 2 3 3 1 2 1 1 1 1 2 4 1 3 3 1 2 4 1 7 3 4 4 5 4 4 4
10 12 14 15 15 16 17 19 20 19 15 4 1 1 2 2 0 1 3 3 1 3 0 1 1 3 2 1 1 1 1 2 2 2 2 3 4 4 2 4 2 6 6 7 4 3 3
10 11 12 13 16 17 19 20 19 19 12 3 2 2 2 2 2 3 3 4 1 3 2 1 1 2 1 1 2 2 1 2 3 3 1 3 3 4 4 4 4 6 8 9 5 3 8
8 9 11 11 12 14 17 19 21 20 10 3 2 2 3 3 2 3 3 2 3 1 2 0 1 1 3 3 2 0 3 2 2 3 1 1 4 8 6 4 3 6 8 11 11 6 6
8 8 9 10 11 14 16 18 20 21 12 4 4 3 2 4 5 4 3 1 3 3 1 2 3 5 2 2 2 3 2 3 4 4 3 4 6 6 12 15 15 17 18 16 17 17 11
9 8 8 9 10 11 14 17 21 22 16 3 3 3 2 2 2 4 1 2 1 2 3 2 3 1 5 4 3 2 2 3 4 5 5 4 4 5 8 14 11 17 18 18 20 22 23
9 9 8 7 8 9 11 14 16 21 14 4 2 2 4 2 2 3 3 2 1 0 3 2 3 4 6 7 6 7 7 9 6 6 8 5 4 4 6 1 13 16 9 16 14 9 14
9 8 10 9 7 7 9 11 13 15 12 3 3 3 3 2 3 3 2 2 2 3 3 1 3 4 3 3 7 7 7 9 10 10 10 7 6 4 7 10 5 3 2 3 10 6 9
10 9 10 9 8 6 6 8 9 11 12 4 2 4 2 2 3 2 3 4 5 5 5 5 4 3 3 4 4 5 4 4 3 2 8 9 8 5 5 5 15 2 3 3 3 4 4
12 10 10 10 8 7 4 4 6 8 9 2 3 4 4 4 4 2 3 2 5 5 4 2 1 0 1 2 3 4 4 1 5 4 0 8 10 7 2 5 5 3 4 1 0 6 4
15 13 12 11 10 8 6 3 4 5 5 3 2 3 3 4 0 2 4 3 2 2 4 1 2 3 2 4 5 5 5 2 4 5 7 5 7 14 11 7 10 3 7 3 4 5 2
16 15 14 12 12 10 7 4 4 3 2 3 2 3 3 3 5 5 3 4 3 4 4 4 3 4 4 5 4 4 4 3 3 2 6 10 8 6 7 7 11 7 6 6 6 5 11
16 16 15 12 13 10 8 4 0 3 2 1 1 1 2 3 5 2 9 12 10 11 7 3 5 3 3 5 3 3 5 4 4 5 6 6 10 3 10 6 5 0 7 8 9 11 10
Wind_Direction
30 32 26 34 82 64 59 50 69 87 102 108 99 112 110 108 104 169 159 127 128 116 144 145 141 233 238 100 50 346 339 349 341 343 28 195 183 162 139 118 144 96 146 122 69 327 299
29 38 41 58 59 46 58 67 67 89 98 103 96 101 119 122 162 144 131 125 114 101 144 150 194 281 228 90 337 351 356 24 22 19 51 20 50 58 96 75 332 83 139 102 359 311 283
31 33 41 44 49 55 65 78 56 81 84 106 107 99 119 114 115 117 105 91 83 92 94 115 272 126 69 69 346 348 28 39 34 25 85 45 25 38 116 117 102 126 210 203 201 307 303
30 32 38 43 44 45 42 53 51 60 66 71 81 97 90 94 92 92 90 88 80 116 150 335 271 118 73 1 333 26 16 70 56 52 81 60 51 87 24 112 152 224 248 248 116 309 118
35 34 35 38 45 46 41 35 40 50 53 57 56 57 57 75 83 97 111 102 89 113 255 277 253 227 87 221 28 7 21 33 45 76 84 87 63 79 145 225 201 198 280 250 176 93 316
35 37 34 36 37 41 53 40 30 33 45 33 41 53 49 48 55 84 92 66 98 183 229 242 80 115 72 42 5 329 3 6 31 265 160 59 73 110 60 241 333 354 295 272 281 72 302
31 33 35 36 39 39 36 39 40 38 37 43 35 30 55 54 66 223 188 237 209 101 43 57 60 88 86 27 273 26 341 308 217 103 55 45 70 78 68 36 18 355 297 295 310 38 315
29 31 31 33 34 35 38 33 30 27 21 20 17 11 8 34 106 27 249 40 31 45 81 58 75 79 64 348 85 28 350 25 6 85 303 132 85 71 45 12 337 324 299 328 301 12 320
29 30 30 29 30 27 28 29 24 16 15 9 0 353 339 235 227 61 78 61 337 315 90 54 38 31 5 346 43 12 359 12 44 55 42 99 88 102 288 262 310 75 340 357 321 316 271
30 25 25 26 23 26 21 22 20 14 7 2 359 2 5 158 168 52 57 353 305 303 103 25 25 56 348 336 77 10 21 352 65 106 69 74 109 196 230 68 325 300 27 330 317 339 321
27 27 25 23 21 17 16 13 15 13 9 1 1 6 16 31 99 62 10 311 306 247 86 9 36 351 347 23 46 54 18 356 70 111 201 115 160 176 248 37 336 16 336 321 319 300 310
24 22 22 20 20 16 14 12 8 6 7 5 5 10 325 56 67 28 309 294 251 37 102 56 324 350 166 54 70 96 71 71 57 106 65 92 94 315 28 42 343 338 295 262 262 295 246
20 20 18 16 14 15 12 9 6 4 0 357 7 32 39 2 47 336 296 240 32 28 172 130 77 46 76 56 90 21 53 81 356 45 355 154 126 104 312 279 164 319 5 331 275 235 319
24 21 18 13 11 8 6 3 3 0 356 346 336 326 41 53 356 318 257 199 75 52 107 93 107 127 71 349 85 52 176 139 73 342 219 250 242 202 110 358 352 22 320 346 295 326 332
21 16 14 13 8 5 3 0 359 353 351 335 284 142 72 18 339 289 252 58 88 87 105 162 166 198 135 137 307 240 26 49 52 11 350 317 130 122 27 338 300 108 235 32 294 215 268
21 25 17 9 4 360 357 357 358 356 354 342 295 195 62 339 320 263 61 83 79 39 125 248 267 289 173 140 220 234 170 72 111 31 335 68 273 184 118 212 166 283 39 225 179 283 286
10 10 13 11 3 356 353 351 355 356 354 349 279 237 58 347 271 221 79 75 114 103 335 315 39 148 64 144 295 80 61 121 158 133 359 348 279 119 229 202 178 156 210 219 300 263 295
8 3 9 7 4 1 356 353 355 355 346 277 306 323 54 309 200 41 65 50 34 129 149 41 346 15 353 58 288 273 279 43 103 155 330 58 315 263 262 93 327 292 271 241 261 168 261
357 8 5 4 359 358 356 353 357 357 358 318 16 9 154 263 35 86 120 111 81 161 143 131 103 7 12 5 277 264 234 65 183 211 307 140 211 284 185 179 188 238 216 234 272 309 241
342 346 353 0 359 357 355 352 351 356 345 303 301 356 38 69 25 35 133 130 131 81 124 105 114 204 197 212 198 255 219 141 181 215 65 199 270 256 276 1 342 227 215 218 211 222 252
325 340 347 354 357 356 357 354 352 355 342 289 359 65 21 2 48 32 336 80 145 177 248 228 192 239 226 238 224 238 232 197 184 156 193 260 267 270 282 283 273 262 257 246 223 235 257
311 320 333 342 352 359 358 357 354 355 344 40 359 327 171 87 313 299 55 119 235 148 210 198 262 202 221 253 296 310 256 225 283 173 210 196 275 311 279 265 272 272 259 249 247 253 248
295 313 317 325 341 354 2 1 0 359 347 47 38 136 292 92 332 283 47 61 62 291 171 296 275 250 238 268 306 296 283 276 278 231 208 222 264 306 273 310 299 276 269 229 228 229 240
298 298 302 311 324 346 359 6 5 8 11 6 22 289 297 52 309 354 339 313 246 235 288 170 228 249 58 309 279 248 258 259 254 236 247 226 240 269 284 306 245 29 15 295 201 252 243
283 280 277 282 294 318 349 6 8 8 4 28 22 306 334 312 335 267 269 279 281 247 250 254 230 354 329 292 276 274 185 206 186 282 239 236 229 271 268 284 293 174 146 152 200 172 71
275 277 271 261 260 275 301 345 2 5 6 338 36 323 307 302 142 174 266 276 298 268 233 217 164 327 260 269 253 258 252 10 179 171 173 215 237 230 156 271 273 83 132 121 91 237 129
262 266 265 254 231 233 242 281 329 358 5 335 55 347 286 296 48 222 247 278 175 258 278 184 172 199 237 221 230 231 241 30 244 216 167 164 199 219 227 253 277 293 158 147 236 87 294
243 254 257 248 224 208 216 239 294 320 2 307 65 352 315 285 274 222 243 244 229 246 260 102 231 186 196 232 249 229 253 186 265 226 188 186 186 199 207 226 254 155 134 223 6 308 329
242 244 248 242 215 189 177 193 262 347 332 277 235 69 333 264 298 271 272 276 262 270 295 215 314 315 263 259 257 292 224 211 252 261 195 235 218 256 212 222 71 191 308 311 310 297 311